Flag Weather past 2 weeks in Paterson, New Jersey, U.S.A.

Now
35 °F

Partly sunny.


Feels Like: 26 °F
Forecast: 24 / 35 °F
Wind: 15 mph from Northwest

Location: Essex County Airport

Current Time: Nov 28, 2014 at 2:37:06 PM

Latest Report: Nov 28, 2014 at 1:53 PM


Visibility: 10 mi

Pressure: 30.19 "Hg

Humidity: 46%

Dew point: 16 °F

Location of PatersonLocation

Historic Weather in Paterson — Graph

°F

Paterson temperature yesterday

Maximum temperature yesterday: 36 °F (at 1:53 PM)
Minimum temperature yesterday: 30 °F (at 11:53 PM)
Average temperature yesterday: 34 °F

Past Weeks' High & Low Weather Summary

 TemperatureHumidityPressure
High72 °F (Nov 24, 1:53 PM)93% (Nov 17, 4:53 AM)30.53 "Hg (Nov 17, 4:53 AM)
Low18 °F (Nov 22, 4:53 AM)27% (Nov 23, 1:53 PM)29.53 "Hg (Nov 17, 6:53 PM)
Average37 °F59%30.08 "Hg
* Reported Nov 13 12:53 PM — Nov 28 12:53 PM, Paterson, Weather by CustomWeather, © 2014

Note: Actual official high and low records may vary slightly from our data, if they occured in-between our weather recording intervals... More about our weather records

Advertising

Paterson weather history for previous 24 hours

 ConditionsComfort  
Time TempWeatherWind HumidityBarometerVisibility
12:53 PM
Nov 28
33 °FOvercast.12 mph54%30.19 "Hg10 mi
11:53 AM34 °FOvercast.14 mph54%30.19 "Hg10 mi
10:53 AM34 °FScattered clouds.6 mph56%30.21 "Hg10 mi
9:53 AM33 °FSunny.9 mph56%30.21 "Hg10 mi
8:53 AM31 °FPassing clouds.13 mph61%30.21 "Hg10 mi
7:53 AM29 °FSunny.6 mph72%30.19 "Hg10 mi
6:53 AM25 °FClear.No wind81%30.16 "Hg10 mi
5:53 AM26 °FOvercast.No wind81%30.14 "Hg10 mi
4:53 AM26 °FClear.No wind81%30.12 "Hg10 mi
3:53 AM25 °FPassing clouds.No wind85%30.12 "Hg10 mi
2:53 AM27 °FPassing clouds.No wind78%30.11 "Hg10 mi
1:53 AM29 °FClear.No wind72%30.11 "Hg10 mi
12:53 AM30 °FClear.No wind72%30.10 "Hg10 mi
11:53 PM
Nov 27
30 °FClear.3 mph72%30.09 "Hg10 mi
10:53 PM32 °FClear.No wind69%30.09 "Hg10 mi
9:53 PM33 °FOvercast.6 mph66%30.09 "Hg10 mi
8:53 PM34 °FOvercast.8 mph67%30.09 "Hg10 mi
7:53 PM34 °FOvercast.5 mph70%30.07 "Hg10 mi
6:53 PM34 °FOvercast.3 mph76%30.06 "Hg10 mi
5:53 PM33 °FOvercast.No wind78%30.05 "Hg10 mi
4:53 PM35 °FPassing clouds.6 mph70%30.04 "Hg10 mi
3:53 PM35 °FOvercast.7 mph72%30.03 "Hg10 mi
2:53 PM35 °FMore clouds than sun.8 mph75%30.01 "Hg10 mi
Weather by CustomWeather, © 2014

See weather overviewHow to use our weather pages